Location: Roland
(31.1349°N, 85.4372°W)
Time: 22:22:21
(UTC+00:00)

Tiros 1 - Pass Details

Date: 22 April 2021
Orbit: 630 x 664 km, 48.4° (Epoch: 13 May)

Event Time Altitude Azimuth Distance (km) Brightness Sun altitude
Rises 13:42:15 0° 246° (WSW) 2,944 10.1 32.4°
Reaches altitude 10° 13:44:41 10° 253° (WSW) 2,031 9.3 32.9°
Maximum altitude 13:49:08 43° 325° (NW) 901 8.0 33.8°
Drops below altitude 10° 13:53:34 10° 37° (NE) 2,018 10.2 34.8°
Sets 13:55:59 0° 44° (NE) 2,923 11.0 35.3°
